Location: Vinland
(47.7731°N, 122.6974°W)
Time: 19:50:06
(UTC+00:00)

Vanguard 1 Rocket - Pass Details

Date: 21 March 2023
Orbit: 655 x 4220 km, 34.3° (Epoch: 05 June)

Event Time Altitude Azimuth Distance (km) Brightness Sun altitude
Rises 08:26:58 0° 236° (SW) 7,894 11.9 -42.0°
Enters shadow 08:27:32 - 236° (SW) 7,767 11.9 -42.0°
Exits shadow 08:59:21 - 104° (ESE) 3,909 10.6 -41.2°
Sets 09:00:53 0° 100° (E) 4,304 10.9 -41.1°
